www.pogodaiklimat.ru

Погода и климат >> Архив погоды >> Россия >> Калининградская область >> Советск


ПОГОДА в Советске

  • Прогноз погоды в Советске
  • Монитор погоды в Советске

АРХИВ ПОГОДЫ в Советске

Время (UTC), дата Ветер
(напр.,м/с)
 
Видим.   Явления Облачность Т
(С)
Тd
(С)
f
(%)
Тe
(С)
Тes
(С)
Комфортность P
(гПа)
Po
(гПа)
Тmin
(С)
Tmax
(С)
R
(мм)
R24
(мм)
S
(см)
00 16.09 З 4-9
{12}
20 км {ливн. осадки} 8/8 600 м
[Sc]
+12.7 +8.1 74 +11 +11 1006.3 1001.9
03 16.09 З 5-11
{12}
20 км в посл. час ливневой дождь 9/9 600 м
[Sc]
+13.0 +8.8 76 +11 +11 1005.6 1001.2 +11.9 4
06 16.09 З 6-11
{12}
20 км {ливн. осадки} 9/9 600 м
[Sc]
+13.8 +8.7 71 +12 +12 1005.8 1001.4 +11.9 4
09 16.09 З 6-12
{13}
20 км 9/9 600 м
[Sc]
+14.8 +8.0 64 +13 +13 1006.8 1002.4
12 16.09 З 7-13
{15}
20 км 8/8 600 м
[Sc]
+14.9 +6.7 58 +13 +14 1007.5 1003.1
15 16.09 З 6-12
{14}
20 км 8/8 600 м
[Sc]
+14.4 +7.0 61 +13 +13 1007.4 1003.0 0.3
18 16.09 ЮЗ 2-5
{12}
20 км 8/8 600 м
[Sc]
+11.3 +6.7 73 +10 +10 1007.0 1002.5 +16.3
21 16.09 З 3-6
{6}
20 км 3/3 600 м
[Sc]
+11.3 +7.4 77 +10 +10 1006.2 1001.6
00 17.09 З 2-5
{6}
20 км 3/3 600 м
[Sc]
+8.9 +5.3 78 +7 +7 1006.6 1002.1
03 17.09 ЮЗ 3-4
{9}
20 км 4/4 600 м
[Sc]
+7.5 +5.6 88 +5 +5 1005.8 1001.3 +7.0
06 17.09 ЮЗ 3-6
{8}
20 км {ливн. осадки} 3/3 600 м
[Sc]
+8.5 +6.7 88 +6 +6 1005.2 1000.7 +6.6 2
09 17.09 ЮЗ 4-8
{11}
20 км слаб. ливневой дождь 10/10 300 м
[Cb cap]
+9.5 +7.9 90 +7 +7 1004.6 1000.1
12 17.09 Ю 3-5
{10}
20 км в посл. час ливневой дождь 10/10 600 м
[Sc]
+7.8 +6.5 91 +5 +5 1002.4 997.9
15 17.09 ЮЗ 3-5
{7}
20 км в посл. час ливневой дождь 10/10 600 м
[Sc]
+8.7 +7.6 93 +6 +6 1000.7 996.2 18
18 17.09 Ю 4-6
{9}
20 км {ливн. осадки} 10/10
[Sc]
+7.4 +5.8 90 +4 +4 999.1 994.6 +12.8
21 17.09 ЮЗ 3-6
{9}
20 км {ливн. осадки} 9/9 600 м
[Sc]
+6.7 +5.6 93 +3 +3 998.9 994.4
00 18.09 ЮЗ 3-5
{8}
20 км {ливн. осадки} 8/8 600 м
[Sc]
+6.0 +5.1 94 +3 +3 998.6 994.1
03 18.09 З 2-4
{5}
20 км 10/10 600 м
[Sc]
+6.5 +5.7 95 +4 +4 1000.4 995.9 +6.0 7
06 18.09 СЗ 4-6
{7}
20 км 8/8 600 м
[Sc As trans]
+7.2 +5.5 89 +4 +4 1003.8 999.3 +6.0 7
09 18.09 СЗ 3-6
{7}
20 км 9/9 600 м
[Sc]
+11.5 +6.6 72 +10 +10 1007.0 1002.5
12 18.09 СЗ 4-7
{13}
10 км ливневой дождь 10/10 300 м
[Cb cap]
+8.3 +7.2 93 +5 +5 1009.0 1004.5
15 18.09 З 4-8
{8}
20 км {ливн. осадки} 10/10 600 м
[Sc]
+9.3 +7.4 88 +6 +6 1010.7 1006.2 7
18 18.09 З 3-4
{7}
20 км в посл. час ливневой дождь 9/9 600 м
[Sc]
+8.4 +6.8 90 +6 +6 1012.2 1007.7 +13.9 8
21 18.09 З 3-6
{9}
20 км 9/9 600 м
[Sc]
+8.8 +7.3 90 +6 +6 1013.0 1008.5
00 19.09 СЗ 2-3
{5}
20 км 6/6 600 м
[Sc]
+7.4 +6.0 91 +5 +5 1014.6 1010.0
03 19.09 З 2-2
{4}
20 км 6/6 600 м
[Sc]
+5.6 +4.9 95 +3 +3 1015.7 1011.1 +5.5 1
06 19.09 З 2-3
{5}
20 км в посл. час ливневой дождь 8/8 600 м
[Sc]
+7.9 +6.1 88 +6 +6 1016.8 1012.2 +4.6 0.0
09 19.09 СЗ 2-3
{6}
20 км 6/6 600 м
[Sc]
+12.1 +6.5 69 +11 +14 1018.1 1013.6
12 19.09 З 1-2
{8}
20 км в посл. час ливневой дождь 8/8 600 м
[Sc]
+11.0 +7.5 79 +11 +12 1018.6 1014.1
15 19.09 С 4-8
{10}
20 км 9/9 600 м
[Sc]
+10.8 +5.1 68 +9 +9 1018.6 1014.1 3
18 19.09 СЗ 3-5
{13}
20 км в посл. час ливневой дождь 10/10 600 м
[Sc]
+8.0 +5.8 86 +5 +5 1019.8 1015.2 +13.5 6
21 19.09 З 2-4
{7}
20 км 3/3 600 м
[Sc]
+7.0 +4.3 83 +5 +5 1020.9 1016.3
00 20.09 З 3-5
{6}
20 км 4/4 600 м
[Sc]
+6.6 +4.0 83 +4 +4 1021.4 1016.8
03 20.09 З 2-4
{6}
20 км 3/3 600 м
[Sc]
+5.3 +3.0 85 +3 +3 1021.5 1016.9 +5.0 3
06 20.09 З 2-4
{6}
20 км 6/6 600 м
[Sc]
+7.1 +3.1 76 +5 +5 1022.2 1017.6 +4.6
09 20.09 СЗ 2-4
{5}
20 км 8/0
[Ac trans]
+11.6 +4.3 61 +11 +14 1023.2 1018.7
12 20.09 С 2-5
{7}
20 км 8/8 600 м
[Sc]
+13.2 +2.8 49 +13 +14 1022.9 1018.4
15 20.09 З 2-4
{6}
20 км 8/8 600 м
[Sc]
+12.4 +2.5 51 +12 +12 1022.2 1017.7
18 20.09 Ю 3-3
{4}
20 км 6/0
[Ac trans]
+7.5 +3.2 74 +5 +5 1022.0 1017.4 +14.0
21 20.09 Ю 3-4
{5}
20 км 8/8 600 м
[Sc]
+7.6 +5.0 84 +5 +5 1020.8 1016.2
00 21.09 ЮЗ 3-7
{7}
20 км 10/10 600 м
[Sc]
+8.9 +6.9 87 +6 +6 1019.2 1014.6
03 21.09 ЮЗ 3-6
{7}
20 км в посл. час ливневой дождь 10/10 600 м
[Sc]
+9.1 +8.4 95 +6 +6 1017.5 1012.9 +6.2 0.0
06 21.09 ЮЗ 3-4
{5}
20 км 9/9 600 м
[Sc]
+11.2 +10.7 97 +9 +9 1017.4 1012.9 +6.2 0.0
09 21.09 З 4-7
{8}
20 км 10/10 600 м
[Sc]
+14.4 +11.5 83 +13 +13 1017.5 1013.0
12 21.09 З 6-11
{11}
20 км 9/9 600 м
[Sc]
+14.9 +11.1 78 +13 +13 1017.3 1012.8
15 21.09 З 4-7
{9}
20 км 10/10 600 м
[Sc]
+14.0 +11.4 84 +13 +13 1017.3 1012.8
18 21.09 З 4-6
{8}
20 км 10/10 600 м
[Sc]
+13.1 +10.8 86 +11 +11 1017.7 1013.2 +15.1
21 21.09 З 2-6
{7}
20 км 9/9 600 м
[Sc]
+13.0 +11.1 88 +12 +12 1018.0 1013.5
00 22.09 ЮЗ 2-3
{6}
20 км 3/3 600 м
[Sc]
+11.6 +10.8 95 +10 +10 1017.6 1013.1
03 22.09 ЮЗ 2-4
{4}
20 км 9/9 600 м
[Sc]
+11.6 +11.0 96 +10 +10 1016.8 1012.3 +11.2
06 22.09 ЮЗ 3-6
{6}
20 км 10/10 600 м
[Sc]
+12.5 +11.2 92 +11 +11 1016.7 1012.1 +11.2
09 22.09 ЮЗ 4-7
{7}
20 км 10/10 600 м
[Sc]
+13.7 +11.2 85 +12 +12 1016.4 1011.9
12 22.09 ЮЗ 2-4
{8}
20 км 10/10 600 м
[Sc]
+14.1 +11.7 85 +14 +14 1015.5 1011.0
15 22.09 З 3-5
{6}
20 км 8/8 600 м
[Sc]
+15.4 +12.6 83 +15 +15 1015.1 1010.6
18 22.09 В 3-6
{10}
20 км 10/10 600 м
[Sc]
+8.4 +4.2 75 +6 +6 1017.9 1013.3 +15.7
21 22.09 В 2-4
{8}
20 км 8/8 600 м
[Sc]
+7.1 +4.2 82 +5 +5 1020.1 1015.5

 

Местоположение метеостанции Советск (Калининградская область, Россия): широта 55.08 долгота 21.93 высота над уровнем моря 36 м.

В архиве по умолчанию представлена погода в Советске за последнюю неделю. Архивные данные за месяц целиком и за предыдущие месяцы, начиная с января 2011 года, Вы можете получить, выбрав интересующий диапазон дат из раскрывающегося списка и нажав кнопку "Ввод!".


*Определитесь, кто Вы:
робот инопланетянин человек

Внимание! Время в таблицах - всемирное. Для получения местного времени необходимо прибавить поправку, которая равна 2 ч.

Смотрите также архив погоды в соседних городах и на ближайших метеорологических станциях:

Погода в Шилуте (Литва) (43 км)
Погода в Черняховске (Калининградская область, Россия) (51 км)
Погода в Лаукуве (Литва) (63 км)
Погода в Ниде (Литва) (64 км)
Погода в Рыбачем (Калининградская область, Россия) (70 км)
Погода в Кибартае (Литва) (74 км)
Погода в Расейняе (Литва) (85 км)
Погода в Виштынце (Калининградская область, Россия) (88 км)
Погода в Железнодорожном (Калининградская область, Россия) (89 км)
Погода в Kлайпеде (Литва) (90 км)

Пояснения к столбцам:

Ветер - указаны скорость ветра в м/с - средняя за 10 мин, порывы в срок и между сроками (в фигурных скобках) и направление, откуда дует ветер: С - северный, СВ - северо-восточный, В - восточный, ЮВ - юго-восточный, Ю - южный, ЮЗ - юго-западный, З - западный, СЗ - северо-западный.
Видимость - горизонтальная дальность видимости в метрах или километрах. При видимости от 1 до 10 км при отсутствии осадков обычно наблюдается дымка, при ухудшении видимости до 1 км и менее - туман. В сухую погоду видимость может ухудшаться дымом, пылью или мглою.
Явления - указаны атмосферные явления, наблюдавшиеся в срок или в последний час перед сроком; фигурными скобками обозначены явления, наблюдавшиеся между сроками (за 1-3 часа до срока); квадратными скобками обозначены град или гололедные отложения с указанием их диаметра в мм.
Облачность - указаны через наклонную черту общая и нижняя облачность в баллах и высота нижней границы облаков в метрах; квадратными скобками обозначены формы облаков: Ci - перистые, Cs - перисто-слоистые, Cc - перисто-кучевые, Ac - высококучевые, As - высокослоистые, Sc - слоисто-кучевые, Ns - слоисто-дождевые, Cu - кучевые, Cb - кучево-дождевые. Подробнее классификацию облаков см. в Атласе облаков (PDF).
T - Температура воздуха - температура, измеренная на высоте 2 м над землей.
Td - Температура точки росы - температура, при понижении до которой содержащийся в воздухе водяной пар достигнет насыщения.
f - Относительная влажность воздуха - влажноcть воздуха, измеренная на высоте 2 м над землей.
Te - Эффективная температура - температура, которую ощущает одетый по сезону человек в тени. Характеристика душности погоды. При расчете учитывается влияние влажности воздуха и скорости ветра на теплоощущения человека.
Tes - Эффективная температура на солнце - температура, которую ощущает человек, с поправкой на солнечный нагрев. Характеристика знойности погоды. Зависит от высоты солнца над горизонтом, облачности и скорости ветра. Ночью, в пасмурную погоду, а также при ветре 12 м/с и более поправка равна нулю.
P - Атмосферное давление - приведенное к уровню моря атмосферное давление.
Po - Атмосферное давление - измеренное на уровне метеостанции атмосферное давление.
Tmin - Минимальная температура - минимум температуры воздуха на высоте 2 м над землей.
Tmax - Максимальная температура - максимум температуры воздуха на высоте 2 м над землей.
R - Количество осадков - Количество выпавших осадков за период времени, мм. При наведении курсора мыши на число - период времени, за который выпало указанное количество осадков.
R24 - Количество осадков - Количество выпавших осадков за 24 часа, мм.
S - Снежный покров - Высота снежного покрова, см. При наведении курсора мыши на число - состояние снежного покрова и степень покрытия местности в баллах.